User: anonymous   Login
Location: Mountain Grove
(34.0887°N, 86.6172°W)
Time: 09:14:58
(UTC+00:00)
Language:

Cosmos 1371 Rocket - Orbit

View from above orbital plane
View from above orbital plane
View from above satellite
View from above satellite

Ground track
Ground track

The orbit data is extracted from the following two-line orbital elements,

1 13242U 82051B   20269.84861384 +.00000045 +00000-0 +24413-4 0  9996
2 13242 074.0435 317.3170 0025765 226.5384 133.3626 14.35987579005102
Epoch (UTC): 25 September 2020 20:22:00
Eccentricity: 0.0025765
inclination: 74.0435°
perigee height: 753 km
apogee height: 790 km
right ascension of ascending node: 317.3170°
argument of perigee: 226.5384°
revolutions per day: 14.35987579
mean anomaly at epoch: 133.3626°
orbit number at epoch: 510

The dashed part of the orbit path shows where the satellite is in the earth's shadow,  

DLR